User: anonymous   Login
Location: Unspecified
(0.0000°N, 0.0000°E)
Time: 19:38:18
(UTC+00:00)
Language:

Geos 1 - Orbit

View from above orbital plane
View from above orbital plane
View from above satellite
View from above satellite

Ground track
Ground track

The orbit data is extracted from the following two-line orbital elements,

1 09931U 77029A   18202.21931395  .00000015  00000-0  00000+0 0  9998
2 09931  26.5873 214.1983 6557150 149.8618 274.1047  1.96177519295208
Epoch (UTC): 21 July 2018 05:15:48
Eccentricity: 0.6557150
inclination: 26.5873°
perigee height: 2902 km
apogee height: 38251 km
right ascension of ascending node: 214.1983°
argument of perigee: 149.8618°
revolutions per day: 1.96177519
mean anomaly at epoch: 274.1047°
orbit number at epoch: 29520

The dashed part of the orbit path shows where the satellite is in the earth's shadow,  

DLR